Weather in Krokhalevo

Russia / Perm Krai     58°56′44″N   55°24′59″E
temp.,
°C
wind,
m/s
gust,
m/s
humid.,
%
clouds,
%
prec.,
mm/h
press.,
hPa
HPBL,
m
28 february, sun
sun2823:00−17e41192100 0.1 1011561
02:00−20e4994100 0.0 1011388
05:00−21ene399494 0.1 1012315
08:00−22ene389575 0.0 1012250
11:00−19ene488958 0.0 1012449
14:00−15ene378698 0.0 1012649
17:00−13ene368799 0.1 1013731
20:00−17ene249593 0.0 101485
1 march, mon
mon123:00−20ene239761 0.0 101627
02:00−22ne22959 0.0 101720
05:00−22ne129529 0.0 101920
08:00−23nne11950 0.0 101920
11:00−17ese01880 0.0 1019179
14:00−12sw128258 0.0 1018412
17:00−12sw238578 0.0 1017471
20:00−17ssw239673 0.0 101576
2 march, tue
tue223:00−18ssw399667 0.0 1013228
02:00−16s4119493 0.0 1010349
05:00−16s4119296 0.0 1008398
08:00−15s51194100 0.3 1004448
11:00−14s51094100 1.1 1003504
14:00−13s51092100 0.9 1001538
17:00−12s4893100 1.4 1000597
20:00−12s3895100 0.5 999508
3 march, wed
wed323:00−12s3895100 0.9 999348
02:00−12s2696100 0.4 998275
05:00−13sse2297100 0.7 99874
08:00−13s2497100 0.1 998111
11:00−10ssw139399 0.2 998256
14:00−6w1289100 0.1 998398
17:00−6nw3593100 0.6 998507
20:00−9nnw2696100 0.3 999191
4 march, thu
thu423:00−9nw31095100 0.5 1001462
02:00−14wnw369751 0.0 1001125
05:00−14w379867 0.1 1001146
08:00−14w389691 0.1 1002239
11:00−11w369393 0.1 1002320
14:00−7wsw358679 0.0 1001601
17:00−7ssw478789 0.1 999834
20:00−8s51293100 0.2 997642